Погода в Белом

Россия / Ярославская область     58°22′52″N   39°23′39″E
темп.,
°C
ветер,
м/с
пор.,
м/с
влажн.,
%
обл.,
%
осадки,
мм/ч
давл.,
гПа
погр.,
м
13 мая, чт
чт1300:00+17вюв3116996 0.0 1021320
03:00+13вюв269667 0.0 102199
06:00+15юв398511 0.0 1020309
09:00+17юв37775 0.0 1020692
12:00+21ююв585820 0.1 10191722
15:00+22ююв474674 0.1 10172077
18:00+16ю81294100 9.0 1013907
21:00+14ю1298100 19.9 1014143
14 мая, пт
пт1400:00+11ю3109896 0.1 1015365
03:00+10ю3109699 0.1 1017243
06:00+10ю399396 0.0 1018372
09:00+14ююз36715 0.0 1018815
12:00+18ююз465197 0.0 10181594
15:00+19ю3548100 0.0 10171844
18:00+19ююв35635 0.0 1015983
21:00+13юв289487 0.8 1015159
15 мая, сб
сб1500:00+13ю51396100 1.3 1015611
03:00+13вюв3109899 4.2 1013355
06:00+14юв399762 0.3 1012352
09:00+17ю1287100 1.6 1010227
12:00+21ююв476590 0.6 1010923
15:00+21юв3767100 0.9 1008790
18:00+18ююв41188100 3.2 1006466
21:00+15ю31093100 5.0 1007228
16 мая, вс
вс1600:00+14ю3119589 0.0 1007314
03:00+12ю4119789 0.0 1007367
06:00+13ююз4109587 0.0 1008484
09:00+15ююз4885100 0.0 1009769
12:00+16ююз5876100 0.1 1010918
15:00+18юз466993 0.1 10101061
18:00+18ююз3774100 0.4 1009853
21:00+14юз2992100 1.8 1009228
17 мая, пн
пн1700:00+13ююз39977 0.2 1010265
03:00+11юз25989 0.2 1012107
06:00+13юз269510 0.0 1013211
09:00+17зюз35799 0.0 1014589
12:00+20зюз4561100 0.0 10151109
15:00+21з2458100 0.0 10151239
18:00+21с1171100 0.0 101561
21:00+16в228861 0.0 101530